Weather History for KOGA - December, 2011

Change the Weather History Date:

Thursday, December 1, 2011

  Actual Average Record
Temperature  
Mean Temperature 22 °F -  
Max Temperature 33 °F 44 °F 73 °F (1970)
Min Temperature 12 °F 16 °F -7 °F (1974)
Degree Days  
Heating Degree Days 42    
Moisture  
Dew Point 21 °F    
Average Humidity 78    
Maximum Humidity 93    
Minimum Humidity 60    
Precipitation  
Precipitation 0.01 in - - ()
Sea Level Pressure  
Sea Level Pressure 30.39 in    
Wind  
Wind Speed 16 mph (North)    
Max Wind Speed 28 mph    
Max Gust Speed 33 mph    
Visibility 8 miles    
Events Snow    
Averages and records for this station are not official NWS values.
T = Trace of Precipitation, MM = Missing Value Source: NWS Daily Summary

Daily Weather History Graph

Daily Weather History Graph

Search for Another Location

Airport or City:

Trip Planner

Search our weather history database for the weather conditions in past years. The results will help you decide how hot, cold, wet, or windy it might be!

Date:

Astronomy

Dec. 01, 2011 Rise Set
Actual Time 6:52 AM MST 4:19 PM MST
Civil Twilight 6:22 AM MST 4:49 PM MST
Nautical Twilight 5:47 AM MST 5:24 PM MST
Astronomical Twilight 5:14 AM MST 5:57 PM MST
Moon 11:36 AM MST (12/1) 11:22 PM MST (12/1)
Length of Visible Light 10h 27m
Length of Day
9h 26m
Waxing Crescent, 44% of the Moon is Illuminated
Dec 1
Waxing Crescent
Dec 2
First Quarter
Dec 10
Full
Dec 17
Last Quarter
Dec 24
New

Hourly Weather History & Observations

Time (MST) Temp. Windchill Dew Point Humidity Pressure Visibility Wind Dir Wind Speed Gust Speed Precip Events Conditions
12:15 AM 33.8 °F 23.2 °F 28.4 °F 81% 30.05 in 10.0 mi North 17.3 mph 20.7 mph N/A   Clear
12:35 AM 33.8 °F 24.8 °F 28.4 °F 81% 30.07 in 10.0 mi NNE 12.7 mph 20.7 mph N/A   Clear
12:55 AM 33.8 °F 24.8 °F 28.4 °F 81% 30.08 in 10.0 mi North 12.7 mph 18.4 mph N/A   Clear
1:15 AM 33.8 °F 23.9 °F 28.4 °F 81% 30.09 in 10.0 mi NNE 15.0 mph 20.7 mph N/A   Clear
1:35 AM 33.8 °F 27.7 °F 28.4 °F 81% 30.12 in 10.0 mi NNE 6.9 mph - N/A   Clear
1:55 AM 33.8 °F 25.3 °F 26.6 °F 75% 30.13 in 10.0 mi NNE 11.5 mph - N/A   Scattered Clouds
2:15 AM 33.8 °F 22.8 °F 26.6 °F 75% 30.13 in 10.0 mi NNE 18.4 mph 23.0 mph N/A   Mostly Cloudy
2:35 AM 33.8 °F 24.3 °F 28.4 °F 81% 30.14 in 10.0 mi North 13.8 mph 23.0 mph N/A   Overcast
2:55 AM 32.0 °F 20.5 °F 28.4 °F 87% 30.16 in 10.0 mi North 18.4 mph 25.3 mph N/A   Overcast
3:35 AM 32.0 °F 20.8 °F 28.4 °F 87% 30.20 in 10.0 mi North 17.3 mph 23.0 mph N/A   Overcast
3:55 AM 32.0 °F 20.1 °F 30.2 °F 93% 30.22 in 10.0 mi North 19.6 mph 24.2 mph N/A   Overcast
4:15 AM 32.0 °F 21.2 °F 28.4 °F 87% 30.26 in 10.0 mi North 16.1 mph 26.5 mph N/A   Overcast
4:35 AM 32.0 °F 19.8 °F 26.6 °F 80% 30.27 in 10.0 mi NNE 20.7 mph 29.9 mph N/A   Overcast
4:55 AM 32.0 °F 20.1 °F 26.6 °F 80% 30.28 in 3.0 mi North 19.6 mph 23.0 mph N/A Snow Light Snow
5:15 AM 32.0 °F 19.8 °F 28.4 °F 87% 30.29 in 1.2 mi North 20.7 mph 24.2 mph N/A Snow Light Snow
5:35 AM 32.0 °F 19.2 °F 28.4 °F 87% 30.31 in 1.0 mi NNE 23.0 mph 28.8 mph N/A Snow Snow
5:55 AM 30.2 °F 16.5 °F 28.4 °F 93% 30.32 in 1.8 mi NNE 24.2 mph 29.9 mph N/A Snow Light Snow
6:15 AM 30.2 °F 16.5 °F 26.6 °F 86% 30.34 in 2.0 mi NNE 24.2 mph 31.1 mph N/A Snow Light Snow
6:35 AM 30.2 °F 17.1 °F 26.6 °F 86% 30.35 in 2.5 mi NNE 21.9 mph 32.2 mph 0.01 in Snow Light Snow
6:55 AM 30.2 °F 17.8 °F 26.6 °F 86% 30.36 in 1.0 mi North 19.6 mph 28.8 mph 0.01 in Snow Light Snow
7:15 AM 28.4 °F 14.4 °F 24.8 °F 86% 30.38 in 0.5 mi North 23.0 mph 31.1 mph N/A Snow Light Snow
7:35 AM 28.4 °F 16.2 °F 24.8 °F 86% 30.40 in 7.0 mi North 17.3 mph 28.8 mph N/A Snow Light Snow
7:55 AM 28.4 °F 13.3 °F 23.0 °F 80% 30.42 in 10.0 mi North 27.6 mph 33.4 mph N/A   Overcast
8:15 AM 28.4 °F 15.1 °F 21.2 °F 74% 30.43 in 10.0 mi North 20.7 mph 31.1 mph N/A   Overcast
8:35 AM 28.4 °F 15.8 °F 21.2 °F 74% 30.45 in 10.0 mi North 18.4 mph 29.9 mph N/A   Overcast
8:55 AM 26.6 °F 12.7 °F 21.2 °F 80% 30.46 in 10.0 mi North 20.7 mph 26.5 mph N/A   Overcast
9:15 AM 26.6 °F 12.7 °F 23.0 °F 86% 30.47 in 2.5 mi North 20.7 mph 28.8 mph N/A Snow Light Snow
9:35 AM 26.6 °F 13.4 °F 23.0 °F 86% 30.49 in 4.0 mi North 18.4 mph 27.6 mph N/A Snow Light Snow
9:55 AM 26.6 °F 12.0 °F 21.2 °F 80% 30.50 in 7.0 mi North 23.0 mph 26.5 mph N/A Snow Light Snow
10:15 AM 28.4 °F 14.4 °F 17.6 °F 64% 30.51 in 10.0 mi North 23.0 mph 29.9 mph N/A   Overcast
10:35 AM 28.4 °F 14.4 °F 17.6 °F 64% 30.51 in 10.0 mi North 23.0 mph 26.5 mph N/A   Overcast
11:15 AM 30.2 °F 17.1 °F 19.4 °F 64% 30.50 in 10.0 mi North 21.9 mph 28.8 mph N/A   Scattered Clouds
11:35 AM 28.4 °F 14.4 °F 19.4 °F 69% 30.50 in 10.0 mi North 23.0 mph 29.9 mph N/A   Scattered Clouds
11:55 AM 30.2 °F 17.1 °F 17.6 °F 60% 30.50 in 10.0 mi NNE 21.9 mph 31.1 mph N/A   Clear
12:15 PM 28.4 °F 14.7 °F 17.6 °F 64% 30.51 in 10.0 mi North 21.9 mph 29.9 mph N/A   Clear
12:35 PM 28.4 °F 14.7 °F 19.4 °F 69% 30.50 in 10.0 mi NNE 21.9 mph 27.6 mph N/A   Clear
12:55 PM 30.2 °F 19.3 °F 19.4 °F 64% 30.50 in 10.0 mi North 15.0 mph 21.9 mph N/A   Clear
1:15 PM 30.2 °F 18.9 °F 19.4 °F 64% 30.50 in 10.0 mi North 16.1 mph 20.7 mph N/A   Scattered Clouds
1:35 PM 30.2 °F 18.5 °F 19.4 °F 64% 30.50 in 10.0 mi North 17.3 mph 24.2 mph N/A   Scattered Clouds
2:15 PM 30.2 °F 19.3 °F 17.6 °F 60% 30.50 in 10.0 mi North 15.0 mph 21.9 mph N/A   Clear
2:35 PM 30.2 °F 20.2 °F 17.6 °F 60% 30.50 in 10.0 mi North 12.7 mph 18.4 mph N/A   Clear
2:55 PM 30.2 °F 20.2 °F 17.6 °F 60% 30.50 in 10.0 mi North 12.7 mph - N/A   Clear
3:15 PM 28.4 °F 18.5 °F 19.4 °F 69% 30.51 in 10.0 mi NNW 11.5 mph - N/A   Scattered Clouds
3:35 PM 28.4 °F 19.1 °F 17.6 °F 64% 30.51 in 10.0 mi North 10.4 mph - N/A   Scattered Clouds
3:55 PM 26.6 °F 17.5 °F 17.6 °F 69% 30.51 in 10.0 mi North 9.2 mph - N/A   Clear
4:15 PM 26.6 °F 19.1 °F 17.6 °F 69% 30.51 in 10.0 mi North 6.9 mph - N/A   Clear
4:35 PM 23.0 °F 14.7 °F 15.8 °F 74% 30.51 in 10.0 mi North 6.9 mph - N/A   Clear
4:55 PM 21.2 °F 14.9 °F 14.0 °F 74% 30.51 in 10.0 mi NNW 4.6 mph - N/A   Clear
5:15 PM 17.6 °F 9.3 °F 12.2 °F 79% 30.51 in 10.0 mi NW 5.8 mph - N/A   Clear
5:35 PM 17.6 °F 10.7 °F 12.2 °F 79% 30.51 in 10.0 mi NNW 4.6 mph - N/A   Clear
5:55 PM 15.8 °F 7.2 °F 10.4 °F 79% 30.51 in 10.0 mi NNW 5.8 mph - N/A   Clear
6:15 PM 15.8 °F 10.2 °F 12.2 °F 86% 30.50 in 10.0 mi NW 3.5 mph - N/A   Clear
6:35 PM 14.0 °F 8.2 °F 12.2 °F 93% 30.50 in 10.0 mi West 3.5 mph - N/A   Clear
6:55 PM 14.0 °F 8.2 °F 10.4 °F 86% 30.50 in 10.0 mi West 3.5 mph - N/A   Clear
7:15 PM 12.2 °F 6.1 °F 10.4 °F 92% 30.50 in 10.0 mi West 3.5 mph - N/A   Clear
7:35 PM 12.2 °F 6.1 °F 10.4 °F 92% 30.50 in 10.0 mi West 3.5 mph - N/A   Clear
7:55 PM 12.2 °F - 8.6 °F 85% 30.49 in 10.0 mi Calm Calm - N/A   Clear
8:15 PM 10.4 °F 2.2 °F 8.6 °F 92% 30.48 in 10.0 mi WSW 4.6 mph - N/A   Clear
8:35 PM 10.4 °F 4.0 °F 8.6 °F 92% 30.48 in 10.0 mi WNW 3.5 mph - N/A   Clear
8:55 PM 12.2 °F 4.3 °F 8.6 °F 85% 30.47 in 10.0 mi West 4.6 mph - N/A   Clear
9:15 PM 10.4 °F 0.8 °F 6.8 °F 85% 30.46 in 10.0 mi WSW 5.8 mph - N/A   Clear
9:35 PM 10.4 °F 0.8 °F 5.0 °F 79% 30.46 in 10.0 mi West 5.8 mph - N/A   Clear
10:15 PM 8.6 °F 2.0 °F 5.0 °F 85% 30.45 in 10.0 mi SW 3.5 mph - N/A   Clear
10:55 PM 6.8 °F -0.1 °F 3.2 °F 85% 30.45 in 10.0 mi West 3.5 mph - N/A   Clear
11:15 PM 6.8 °F -0.1 °F 3.2 °F 85% 30.43 in 10.0 mi West 3.5 mph - N/A   Clear
11:55 PM 6.8 °F - 3.2 °F 85% 30.38 in 10.0 mi Calm Calm - N/A   Clear